Wind_Speed
8 5 5 9 12 14 16 20 15 16 14 13 12 10 9 6 4 6 7 7 6 8 10 11 13 13 11 13 11 8 14 3 3 4 9 9 10 9 9 10 10 10 10 12 14
7 6 5 13 16 17 20 17 13 13 11 10 9 8 7 6 9 10 9 9 10 11 13 16 16 14 16 14 9 21 16 7 7 6 8 9 8 9 9 11 11 12 14 16 18
11 7 6 12 14 13 14 11 10 9 8 8 7 7 7 9 10 12 11 13 15 15 16 19 21 16 10 7 5 6 8 7 9 6 8 9 9 11 11 11 12 15 17 16 14
11 10 12 16 9 11 9 8 7 7 7 6 6 8 9 9 13 13 14 16 15 16 19 21 15 17 5 4 8 5 6 7 7 8 8 7 8 9 12 13 14 15 17 18 18
14 13 10 14 17 14 8 6 4 5 5 5 7 7 9 12 13 13 14 14 14 14 17 16 11 9 5 3 5 6 3 7 8 8 10 11 11 16 16 16 17 18 18 18 19
16 18 18 20 22 12 6 5 4 3 4 7 7 8 9 12 12 13 14 13 12 11 13 9 9 8 3 4 5 7 5 6 9 12 13 15 18 18 20 19 21 21 22 21 21
15 10 9 14 16 7 3 2 1 4 6 8 8 10 8 13 11 13 12 10 9 10 10 6 6 1 5 8 10 11 7 7 10 15 18 22 18 22 24 27 25 22 22 23 24
13 10 3 1 5 3 0 1 3 5 8 10 9 9 11 9 9 11 9 8 6 7 7 6 4 4 6 11 13 15 17 11 11 18 20 23 21 26 30 33 29 24 25 26 25
16 9 3 5 4 2 4 4 5 7 10 10 10 11 11 7 7 7 7 6 4 3 2 2 3 5 9 13 20 14 23 6 29 17 23 22 25 23 29 32 29 26 27 28 25
15 8 6 8 3 5 6 6 6 8 9 9 9 10 8 5 4 2 2 2 2 2 1 3 5 9 14 11 23 29 26 20 18 26 24 32 29 30 31 31 28 27 28 26 26
13 9 9 8 6 7 6 7 8 8 7 5 8 6 6 4 3 1 2 3 3 3 3 13 7 10 11 16 17 21 15 17 26 28 31 32 39 28 31 25 28 26 26 26 24
13 9 8 7 7 7 7 8 7 9 6 5 5 4 2 2 1 0 3 3 1 5 9 10 12 9 15 17 21 19 18 26 16 24 27 34 40 34 28 27 26 27 26 23 20
14 10 8 8 8 9 8 8 7 7 7 5 3 1 1 1 2 2 3 4 3 6 6 8 17 14 18 19 20 23 20 15 23 34 34 41 33 29 27 24 28 25 23 22 20
14 11 10 10 11 10 9 8 8 7 8 4 2 2 2 3 3 3 5 2 3 5 7 19 16 14 13 13 9 18 35 39 35 38 33 35 22 28 24 26 27 20 18 22 26
14 12 11 12 10 10 9 10 9 8 10 7 6 2 1 3 7 7 4 4 3 11 5 23 20 8 10 20 25 26 33 38 36 34 28 25 28 26 28 29 24 11 25 26 27
11 13 13 12 11 11 11 11 10 10 8 7 4 1 3 1 2 7 7 7 8 8 10 9 13 16 19 24 26 33 33 29 28 21 35 33 13 19 36 31 19 25 24 25 26
12 13 14 12 12 12 13 13 11 1 8 8 7 5 5 7 7 2 8 7 13 7 22 30 10 21 28 24 30 24 35 24 26 27 27 35 29 32 38 18 21 17 21 24 26
12 14 14 13 13 13 13 13 4 8 6 9 10 9 5 10 11 4 4 7 16 14 11 19 32 19 36 26 35 35 26 28 15 22 22 29 35 10 28 25 21 22 24 27 31
13 16 14 13 12 11 12 8 7 10 10 6 7 5 7 8 3 8 12 16 19 20 21 19 20 32 38 35 39 27 14 26 25 21 21 27 13 22 18 17 17 25 27 30 33
16 18 13 13 12 12 13 7 13 8 9 10 3 9 6 5 5 6 17 18 22 21 22 27 29 28 34 40 18 21 25 11 13 17 16 22 24 20 25 23 23 27 27 29 35
17 14 13 14 14 12 10 10 7 7 8 7 9 6 9 7 7 12 21 24 19 27 28 29 28 27 21 27 27 20 20 22 15 19 1 15 18 28 22 22 22 25 31 33 31
15 16 15 14 14 12 12 9 6 9 9 8 8 9 13 14 17 20 24 23 25 24 27 29 23 22 16 19 21 18 17 19 9 10 13 9 23 13 19 23 23 26 28 25 30
18 15 15 14 12 11 9 8 10 9 9 10 11 12 13 15 18 15 23 20 23 22 23 23 24 17 18 23 20 14 23 28 15 11 8 6 13 16 20 22 23 24 27 26 29
16 17 15 12 6 14 10 10 10 7 8 10 10 10 10 13 13 18 23 19 20 19 18 16 14 11 9 19 22 20 24 17 12 10 21 6 15 18 21 22 24 25 27 27 28
18 16 15 14 13 13 10 9 8 5 5 5 4 9 11 14 17 18 20 19 12 12 12 16 16 16 18 18 17 21 24 11 15 9 9 12 15 18 22 23 25 25 27 28 28
15 15 13 9 11 13 12 10 8 6 5 5 9 10 11 14 14 16 15 12 13 14 19 17 16 19 11 15 18 20 14 9 10 11 12 14 17 21 22 23 25 25 26 29 30
14 15 15 16 14 11 12 12 9 7 7 7 9 11 12 13 12 10 8 8 10 14 17 15 16 13 10 12 14 14 13 12 13 13 15 17 20 20 22 23 24 24 26 28 29
Wind_Direction
161 157 195 243 266 282 288 302 293 295 305 315 318 331 352 15 47 73 84 94 108 115 120 114 110 106 101 96 107 212 116 106 138 313 329 1 359 346 321 306 300 288 286 290 296
192 200 227 253 277 280 286 296 297 301 315 316 331 359 28 63 82 87 91 101 110 111 108 112 111 98 80 93 116 317 67 24 13 321 334 345 344 351 344 337 330 323 314 290 291
207 209 242 272 278 286 290 297 303 315 322 333 358 41 69 90 96 96 104 107 110 109 107 109 98 89 72 71 110 358 29 27 12 356 350 356 353 7 3 347 339 338 330 329 313
233 236 244 255 308 308 306 313 320 322 335 1 38 65 92 104 101 98 105 104 108 110 104 103 102 74 156 336 23 52 28 12 19 9 347 342 357 354 356 356 352 345 339 331 319
265 246 268 252 292 311 315 317 323 345 6 40 63 92 115 111 108 105 101 100 105 100 105 100 97 121 205 347 5 2 34 14 12 357 347 343 346 349 342 330 335 332 328 320 318
269 259 269 276 287 291 319 326 356 4 51 66 85 118 122 113 117 109 102 105 108 108 117 117 81 196 250 306 307 297 323 326 342 346 342 342 343 343 344 338 329 327 324 322 318
259 250 253 258 252 290 329 347 18 69 79 88 100 119 126 124 122 112 111 116 121 123 121 139 161 163 281 294 302 307 297 298 324 340 344 339 338 340 341 337 330 326 320 321 318
215 195 178 224 239 290 310 147 113 108 100 102 112 120 122 134 127 118 121 121 120 132 140 178 197 263 292 304 305 297 263 233 347 340 332 328 332 329 334 333 327 317 315 319 314
189 195 262 295 260 224 167 153 137 118 110 114 124 128 133 145 130 130 139 140 139 151 147 216 247 304 333 338 233 343 324 32 323 335 321 317 328 322 325 328 321 318 314 315 310
199 202 254 271 230 191 169 154 142 127 121 126 131 124 136 145 133 149 191 175 214 240 277 302 315 2 339 351 305 338 340 326 316 321 317 313 309 316 320 321 319 314 309 308 307
200 208 247 228 203 184 170 161 148 135 138 133 144 128 139 135 134 225 298 290 285 259 240 310 283 273 295 286 285 290 294 286 275 306 306 315 308 314 317 311 311 309 310 306 303
201 218 218 202 190 181 176 165 149 132 141 157 156 144 132 171 151 88 338 331 289 273 266 286 280 295 260 269 272 290 303 275 313 302 305 309 304 323 320 313 311 312 312 307 305
203 216 208 191 185 180 176 166 147 143 156 172 182 201 321 43 55 6 353 51 225 307 277 256 284 281 282 293 306 296 261 325 306 314 317 318 304 320 308 310 311 315 309 307 318
205 204 192 188 185 174 177 161 156 151 116 160 217 237 354 26 0 334 359 98 262 298 254 241 226 267 324 284 295 298 311 311 320 323 314 311 286 292 319 314 314 310 301 318 313
192 192 180 187 172 174 172 167 154 123 141 169 200 286 320 95 272 325 329 339 15 283 271 281 307 296 298 270 301 306 309 310 319 324 310 283 335 315 322 313 329 296 310 308 310
192 184 176 182 171 176 173 164 149 101 214 215 232 139 112 185 259 282 310 308 270 274 256 230 275 275 287 296 310 312 312 321 324 323 322 318 341 313 308 314 313 306 311 311 314
188 177 181 176 174 179 169 156 125 51 252 215 176 136 179 252 298 206 268 286 291 8 311 321 216 302 309 310 324 327 325 321 307 306 313 308 316 286 301 313 312 319 314 312 314
185 181 184 174 175 172 163 146 132 221 125 191 183 192 209 250 294 274 302 289 286 277 299 292 291 314 302 308 309 317 297 301 294 294 293 281 281 276 314 323 322 330 329 324 323
185 193 184 172 169 163 147 123 182 189 204 170 187 181 282 294 204 300 292 264 299 300 300 287 280 293 301 302 311 313 305 283 291 320 295 304 330 342 331 325 325 327 329 324 326
180 197 179 177 172 167 161 193 213 183 173 133 189 155 219 213 312 308 283 303 301 298 298 288 296 295 295 308 324 317 315 325 310 293 299 292 284 324 323 326 327 324 327 328 325
185 187 180 181 168 149 117 216 189 191 192 150 189 186 214 264 262 274 277 298 300 302 304 294 297 297 305 296 307 300 288 301 303 297 238 292 296 318 319 322 324 323 327 327 328
180 188 184 179 165 147 199 207 211 219 224 230 249 264 271 280 287 287 292 296 303 306 301 308 311 314 292 305 305 319 308 313 299 294 302 305 274 291 324 321 325 325 327 325 326
185 179 177 177 159 166 198 213 224 223 229 244 260 275 291 296 287 290 296 306 307 310 309 313 316 334 290 308 309 307 285 310 315 286 235 279 306 321 316 323 323 325 329 328 330
182 181 179 177 166 192 201 223 221 217 217 245 271 291 293 294 297 304 308 317 314 314 320 329 337 335 288 311 316 312 322 315 293 275 274 281 316 333 322 322 324 328 330 332 331
182 185 179 170 180 176 191 211 233 211 237 270 285 293 298 308 312 318 314 319 326 332 347 352 346 336 326 317 312 320 325 303 5 37 360 324 316 323 325 324 323 324 329 334 335
181 182 175 173 185 199 207 211 224 241 279 289 293 296 303 313 314 311 313 316 330 352 348 346 345 336 1 328 335 15 23 50 18 351 330 325 330 329 327 325 325 323 327 335 334
185 177 180 177 185 187 211 208 224 263 274 288 296 302 316 317 313 314 314 327 350 348 343 352 353 3 2 346 8 3 16 358 354 340 330 330 329 327 325 323 324 325 329 332 334
Height
5900 5900 5901 5901 5901 5901 5900 5899 5898 5898 5896 5896 5895 5894 5894 5894 5894 5894 5895 5896 5897 5898 5900 5901 5902 5903 5904 5904 5905 5895 5897 5902 5903 5885 5897 5897 5895 5893 5891 5889 5888 5886 5885 5883 5880
5899 5900 5900 5901 5900 5900 5899 5898 5897 5896 5895 5895 5894 5894 5894 5894 5894 5894 5896 5897 5898 5900 5901 5903 5904 5905 5905 5906 5906 5885 5897 5899 5901 5900 5898 5897 5896 5894 5892 5889 5887 5885 5883 5880 5879
5898 5899 5899 5900 5899 5899 5898 5897 5896 5895 5895 5894 5894 5894 5894 5895 5895 5896 5897 5899 5899 5901 5902 5904 5905 5906 5909 5911 5907 5907 5900 5901 5901 5901 5899 5897 5895 5893 5891 5888 5886 5883 5881 5879 5877
5896 5897 5898 5900 5899 5899 5897 5896 5895 5895 5895 5894 5894 5894 5895 5895 5897 5897 5899 5900 5902 5903 5903 5905 5906 5907 5909 5912 5907 5905 5903 5902 5901 5900 5899 5897 5895 5893 5890 5887 5884 5882 5879 5876 5874
5895 5896 5897 5899 5899 5898 5896 5895 5895 5894 5895 5895 5894 5895 5896 5896 5897 5898 5900 5902 5903 5905 5906 5907 5908 5910 5913 5909 5906 5904 5903 5901 5900 5899 5897 5895 5893 5891 5888 5885 5883 5880 5877 5874 5871
5895 5896 5897 5898 5898 5898 5896 5895 5895 5895 5895 5895 5895 5896 5897 5898 5899 5900 5902 5904 5905 5906 5908 5908 5911 5911 5909 5908 5904 5903 5902 5900 5899 5897 5895 5892 5890 5889 5886 5883 5880 5877 5873 5870 5867
5894 5896 5897 5897 5897 5896 5895 5895 5895 5895 5896 5896 5897 5898 5898 5899 5900 5902 5903 5905 5907 5907 5909 5910 5910 5912 5908 5905 5903 5902 5899 5898 5896 5894 5892 5889 5888 5885 5883 5880 5877 5873 5870 5866 5862
5893 5894 5894 5894 5894 5894 5894 5895 5895 5896 5896 5897 5899 5900 5900 5901 5902 5903 5905 5906 5907 5908 5909 5909 5909 5908 5907 5904 5903 5899 5891 5885 5895 5892 5889 5886 5885 5882 5879 5876 5872 5869 5866 5862 5858
5889 5892 5892 5893 5893 5894 5894 5894 5896 5896 5897 5899 5901 5902 5903 5904 5904 5905 5906 5907 5908 5908 5909 5908 5908 5907 5906 5903 5878 5897 5880 5867 5885 5886 5885 5885 5881 5879 5875 5872 5868 5865 5861 5857 5853
5887 5890 5890 5892 5892 5893 5894 5894 5896 5896 5898 5900 5902 5904 5905 5906 5906 5906 5907 5908 5908 5908 5909 5909 5910 5909 5908 5909 5905 5895 5894 5897 5890 5884 5884 5880 5876 5875 5871 5867 5862 5859 5856 5852 5848
5886 5888 5889 5891 5891 5892 5894 5895 5898 5898 5899 5901 5903 5903 5905 5907 5907 5907 5908 5907 5908 5909 5910 5911 5912 5915 5916 5912 5907 5902 5901 5902 5891 5887 5880 5877 5874 5870 5865 5862 5858 5854 5851 5847 5843
5885 5887 5888 5889 5890 5891 5894 5895 5897 5898 5900 5901 5902 5904 5905 5906 5907 5908 5909 5908 5909 5909 5912 5914 5914 5913 5910 5906 5901 5899 5900 5888 5867 5881 5878 5871 5862 5863 5860 5855 5851 5847 5844 5841 5840
5884 5885 5887 5888 5890 5892 5895 5896 5897 5899 5901 5902 5903 5904 5905 5907 5907 5908 5908 5907 5909 5911 5914 5914 5912 5907 5906 5903 5899 5895 5877 5860 5879 5876 5873 5866 5853 5856 5855 5851 5846 5843 5839 5836 5835
5882 5884 5886 5888 5891 5892 5895 5896 5898 5899 5903 5904 5904 5904 5905 5906 5907 5907 5907 5908 5911 5911 5914 5908 5901 5905 5904 5900 5894 5895 5883 5878 5875 5873 5870 5861 5854 5845 5848 5846 5842 5836 5831 5833 5832
5881 5884 5886 5888 5890 5892 5895 5897 5899 5902 5910 5907 5906 5905 5906 5910 5908 5907 5906 5906 5908 5904 5909 5905 5902 5904 5903 5897 5893 5889 5883 5879 5875 5869 5862 5858 5836 5840 5841 5842 5836 5822 5832 5832 5829
5880 5883 5885 5887 5889 5892 5895 5898 5901 5906 5909 5906 5906 5907 5911 5911 5910 5907 5906 5904 5905 5907 5907 5893 5899 5899 5897 5892 5888 5884 5878 5874 5871 5863 5860 5851 5841 5844 5838 5839 5836 5834 5831 5828 5825
5879 5882 5883 5886 5889 5892 5896 5898 5903 5907 5907 5908 5908 5909 5915 5911 5908 5908 5908 5907 5904 5901 5896 5894 5881 5893 5891 5887 5884 5877 5878 5874 5873 5870 5864 5857 5852 5840 5835 5836 5834 5831 5829 5825 5822
5878 5881 5883 5886 5889 5893 5896 5899 5903 5906 5908 5907 5908 5911 5913 5908 5906 5905 5906 5907 5901 5900 5902 5900 5893 5886 5884 5884 5882 5879 5876 5874 5864 5867 5862 5855 5842 5826 5834 5832 5829 5827 5824 5822 5817
5878 5880 5883 5886 5889 5893 5897 5900 5905 5906 5903 5905 5907 5910 5910 5907 5906 5904 5902 5901 5898 5897 5896 5894 5894 5886 5880 5879 5877 5872 5872 5866 5862 5860 5843 5848 5842 5829 5832 5832 5827 5826 5822 5819 5813
5877 5880 5883 5886 5890 5894 5897 5897 5900 5900 5902 5904 5909 5908 5910 5906 5906 5905 5902 5897 5894 5893 5891 5889 5887 5884 5878 5872 5872 5867 5863 5862 5863 5859 5856 5846 5844 5832 5832 5830 5827 5822 5820 5816 5809
5876 5880 5883 5886 5890 5894 5896 5898 5898 5899 5901 5906 5906 5906 5905 5904 5902 5903 5896 5891 5890 5886 5886 5882 5881 5879 5877 5869 5865 5864 5862 5857 5854 5846 5848 5848 5841 5833 5832 5830 5826 5822 5815 5810 5805
5875 5880 5882 5886 5890 5893 5899 5896 5898 5899 5900 5900 5900 5900 5900 5899 5897 5896 5891 5888 5885 5883 5879 5874 5874 5872 5871 5864 5860 5857 5853 5851 5850 5851 5846 5846 5836 5833 5833 5829 5825 5819 5815 5810 5804
5874 5878 5882 5885 5889 5895 5895 5895 5897 5898 5898 5898 5898 5898 5897 5895 5893 5891 5885 5884 5881 5879 5875 5873 5869 5868 5864 5861 5857 5853 5848 5847 5846 5844 5838 5842 5837 5834 5831 5826 5822 5818 5812 5807 5800
5874 5878 5882 5886 5888 5893 5893 5894 5895 5896 5897 5896 5896 5895 5893 5891 5889 5886 5882 5881 5878 5874 5872 5869 5866 5864 5863 5857 5853 5850 5847 5844 5843 5843 5840 5837 5836 5831 5827 5823 5818 5814 5809 5803 5797
5873 5877 5881 5884 5887 5892 5893 5894 5893 5894 5893 5894 5893 5891 5890 5888 5886 5883 5880 5876 5875 5871 5869 5866 5863 5860 5856 5854 5850 5846 5843 5843 5841 5840 5840 5837 5832 5829 5825 5820 5816 5811 5806 5801 5794
5872 5876 5880 5883 5886 5888 5890 5892 5892 5891 5892 5891 5890 5888 5887 5886 5884 5881 5878 5876 5873 5869 5866 5864 5861 5857 5855 5852 5849 5845 5842 5842 5840 5838 5836 5833 5829 5825 5821 5817 5812 5808 5803 5797 5791
5871 5874 5878 5881 5885 5889 5889 5890 5889 5890 5890 5889 5887 5886 5885 5883 5881 5879 5877 5874 5872 5869 5865 5862 5859 5856 5854 5852 5848 5846 5843 5841 5838 5836 5834 5830 5826 5821 5817 5813 5808 5803 5798 5793 5788